Regional Weather Roundup
Issued by NWS Upton, NY

Home | Current Version | Previous Version | Text Only | Print | Product List | Glossary On
Versions: 1 2 3 4 5 6 7 8 9 10 11 12 13 14 15 16 17 18 19 20 21 22 23 24 25 26 27 28 29 30 31 32 33 34 35 36 37 38 39 40 41 42 43 44 45 46 47 48 49 50
778
ASUS41 KOKX 260704
RWROKX

REGIONAL WEATHER ROUNDUP
NATIONAL WEATHER SERVICE NEW YORK NY
300 AM EDT FRI AUG 26 2016

NOTE: "FAIR" INDICATES FEW OR NO CLOUDS BELOW 12,000 FEET WITH NO
SIGNIFICANT WEATHER AND/OR OBSTRUCTIONS TO VISIBILITY.

NYZ071-072-176-178-NJZ106-104-260800-
NEW YORK CITY METRO AREA

CITY           SKY/WX    TMP DP  RH WIND       PRES   REMARKS
Central Park     N/A     77  72  83 MISG        N/A
LaGuardia APRT FAIR      79  71  76 S9        29.97S
Kennedy INTL   FAIR      74  71  91 S7        30.00R
Newark/Liberty FAIR      77  70  79 SW12      29.98R
Bronx Bot Gard   N/A     79  70  73 SE6       29.99R
Wall St Helipt FAIR      77  72  83 SW5       29.99S
Teterboro      MOCLDY    77  71  82 SW7       29.97R
$$

NYZ177-179-078>081-260800-
LONG ISLAND NEW YORK

CITY           SKY/WX    TMP DP  RH WIND       PRES   REMARKS
Farmingdale    FAIR      75  69  81 SW8       30.00R
MacArthur/ISP  FAIR      74  71  91 SW7       29.99R
Shirley        FAIR      74  71  91 S7        30.00S
Riverhead      NOT AVBL
Westhampton    FAIR      74  69  85 SW9       30.02R
Southampton      N/A     73  70  88 SW3       29.96S
Bridgehampton    N/A     72  68  88 S1        29.99S
East Hampton   FAIR      73  69  89 SW8       29.99S
Montauk          N/A     74  72  93 SW8       30.00F
$$

NYZ052-065-067-260800-
HUDSON VALLEY

CITY           SKY/WX    TMP DP  RH WIND       PRES   REMARKS
White Plains   FAIR      74  70  87 S3        29.98S
Newburgh       PTCLDY    72  72 100 CALM      29.99S
Montgomery     FAIR      69  68  96 CALM      29.98R FOG
Poughkeepsie   FAIR      70  69  97 CALM      29.96R
Albany         MOCLDY    72  69  90 S5        29.94R
$$

NJZ001-105-106-008-010-013-015-019>022-104-260800-
NEW JERSEY

CITY           SKY/WX    TMP DP  RH WIND       PRES   REMARKS
Newark/Liberty FAIR      77  70  79 SW12      29.98R
Teterboro      MOCLDY    77  71  82 SW7       29.97R
Caldwell       FAIR      75  71  87 VRB3      29.99R
Morristown     FOG       68  68 100 CALM      29.99R VSB 1/2
Somerville     FAIR      70  68  93 CALM      29.98R
Linden         NOT AVBL
Sussex         FAIR      68  68 100 CALM      29.99R FOG
Abdover          N/A     71  70  96 SW3       30.00S
Trenton        FAIR      74  69  85 SW3       29.99S
Millville      FAIR      73  71  93 CALM      30.02S
Atlantic City  FAIR      74  69  85 S7        30.01S
Wrightstown    FAIR      71  68  93 SW5       29.98S
Toms River     FAIR      73  68  84 SW7       30.01S
Belmar         FAIR      73  68  84 S6        30.01S
$$

PAZ047>061-062-071-260800-
EASTERN PENNSYLVANIA

CITY           SKY/WX    TMP DP  RH WIND       PRES   REMARKS
Philadelphia   FAIR      76  69  79 SW8       30.01R
Allentown      FAIR      72  68  87 CALM      29.98F
Scranton       LGT RAIN  73  71  93 CALM      29.99S
$$

CTZ002-004>006-009-010-012-RIZ004-006-007-MAZ004-011-015-260800-
SOUTHERN NEW ENGLAND
 IN CT

CITY           SKY/WX    TMP DP  RH WIND       PRES   REMARKS
Bradley INTL   FAIR      71  67  87 S6        29.97S
Hartford       FAIR      74  70  87 CALM      29.96S
Danbury        FAIR      74  70  87 SW7       29.99S
Wtrbury/Oxford   N/A     70  64  83 SW3       30.01R
Bridgeport     FAIR      77  71  82 SW8       29.97S
Meriden        FAIR      72  68  87 CALM      29.97S
New Haven      FAIR      75  71  87 SW6       29.98S
Chester        NOT AVBL
Groton         CLOUDY    75  71  87 SW7       29.98S
Wilimantic     MOCLDY    71  69  93 CALM      29.99S

 IN RI

CITY           SKY/WX    TMP DP  RH WIND       PRES   REMARKS
Providence     CLOUDY    75  69  81 SW7       29.98F
Block Island   CLOUDY    74  71  91 SW15      30.00S
Westerly       CLOUDY    75  68  78 SW6       29.99F
 IN MA

CITY           SKY/WX    TMP DP  RH WIND       PRES   REMARKS
Boston         CLOUDY    74  68  81 SW8       29.95F
Worcester      FAIR      67  64  90 SW6       29.99F
Westfield      FAIR      68  67  96 CALM      29.96S
Provincetown   CLOUDY    72  68  87 S12       29.98F
Nantucket      FAIR      71  69  93 S12       30.01F
$$

ANZ330-335-338-340-345-350-353-355-260800-
COASTAL MARINE OBSERVATIONS


STATION/POSITION TIME  SKY/WX   TEMP    WIND        PRES    VSBY  WAVE
                                AIR SEA DIR/SP/G                  HT/PER
                 (UTC)          (F)     (DEG/KT/KT) (MB)    (MI)  (FT/S)
NY HARB ENTRANCE 0550            75 72  210/ 10/ 12 1015.2          3/ 5
20S FIRE ISLAND  0550            76 74  220/ 16/ 19 1015.5          4/ 5
GREAT SOUTH BAY  0600            76 78  230/ 10/ 14   N/A
23 SSW MONTAUK P 0550            76 74  220/ 17/ 19 1016.1          4/ 5
15 E BARNEGAT LI 0600               74                N/A           4/ 5
HUDSON CANYON    0550            78 78              1016.6          4/ 5
KINGS POINT      0600            76 76              1014.8
EXECUTION ROCKS  0600            76     190/  8/ 10   N/A
CENTRAL LI SOUND 0600            76 75  220/ 12/ 14   N/A           1/ 3
EASTERN LI SOUND 0600            74 70  220/ 12/ 16   N/A
ROBBINS REEF     0600            77     200/  4/  6 1014.5
$$


>>>>>>>>>>>>>>>>>>>>>>>>>>>> KEY <<<<<<<<<<<<<<<<<<<<<<<<<<<
>                                                          <
>     SKY/WX - Sky Condition/Present Weather               <
>     TMP    - Temperature in Fahrenheit                   <
>     DP     - Dew Point in Fahrenheit                     <
>     RH     - Relative Humidity in Percent                <
>     WIND   - Direction (from) and Speed in MPH           <
>     PRES   - Mean Sea Level Pressure (inches of Hg)      <
>     WCI    - Wind Chill Index                            <
>     VSB    - VISIBILITY IN MILES                         <
>     HX     - HEAT INDEX                                  <
>     TC     - TEMPERATURE IN CELSIUS                      <
>     VRB    - VARIABLE WIND DIRECTION                     <
>                                                          <
>>>>>>>>>>>>>>>>>>>>>>>>>>>> KEY <<<<<<<<<<<<<<<<<<<<<<<<<<<




USA.gov is the U.S. government's official web portal to all federal, state and local government web resources and services.